NIMBUS 2 DEB, 59976

Orbit data source: Space-Track

NIMBUS 2 DEB, 59976 is space debris in SSO originally from a launch on Sun, 15 May 1966 UTC launched from the Air Force Western Test Range (AFWTR). Debris objects in space refer to the collection of defunct objects orbiting the Earth. Examples of debris include non-operational satellites, rocket bodies, and fragments generated from explosions, collisions, or faulty payload assembly.

Loading next visibility...
Identifier
59976, 1966-040CF
Orbit
SSO
Country
Flag of USUS
Related business
Manufacturer
Unknown
Mission
Spacecraft
Bus & Motor
Unknown
Mass
Unknown
Launch date (UTC)
1966-05-15 (59 years ago)
Launch vehicle
Unknown
Launch site
Air Force Western Test Range (AFWTR)
Object type
Payload
Rocket body
Debris
Shape & HBR
Unknown shape, 0.1 m
Radar Cross Section
Small (<0.1 m²)

Expand to show TLE details & history
Last TLE update: 3 days ago

TLE from 3 days ago
0 NIMBUS 2 DEB
1 59976U 66040CF  25284.82897212  .00003716  00000-0  54201-2 0  9993
2 59976 100.6208 300.9596 0041743  27.6994 152.2393 13.55196783640310
Epoch: 2025-10-11T19:53Z
TLE epoch observation values (Epoch: 2025-10-11T19:53:43.191Z)
Latitude
-0.2705°
Longitude
161.82432°
Altitude
1,083.478 km
Speed
7.297 km/s
True Right ascension
08h 03m 38s
True Declination
0° 16' 08"
Sunlit
Object was in daylight at epoch
Visualization orbit readout
Latitude
Unknown
Longitude
Unknown
Altitude
Unknown
Speed
Unknown
Apparent Right ascension
Unknown
Apparent Declination
Unknown
Sunlit
N/A
Visualization observer readout
Local Sidereal Time
11:47:46
Azimuth
Unknown
Elevation
Unknown
Doppler factor
Unknown
Orbital elements
Apogee altitude
1,081.553 km
Perigee altitude
1,019.534 km
Semi-major axis
7,428.681 km
Eccentricity
0.00417
Inclination
100.6208°
RAAN
300.9596°
Arg. of periapsis
27.6994°
True anomaly
152.46108°
Mean anomaly
152.2393°
Eccentric anomaly
152.35029°
Mean motion
3.38981 °/min
Orbital period
106.2 mins
BSTAR
0.0054201
Loading maneuver chart data...
Computing Atmospheric mass density...
Loading historical data...
Loading historical data...
Loading historical data...
Loading historical data...
Loading historical data...
Loading historical data...
Loading historical data...

Documentation

Showing up to 5 results
|